DW6083 Weather Reports


Display with metric or nautical units.
time (UTC)temp
F
wind
direction
speed
MPH
gust
MPH
rain 1hr
in
rain 24hr
in
rain mn
in
humidity
%
barometer
mb
20240520070108 57 113 0.0 0.0 0.00 0.28 0.00 1 1015.0
20240520064556 57 113 0.0 0.0 0.00 0.28 0.00 1 1015.0
20240520063055 58 113 0.0 0.0 0.00 0.28 0.00 1 1015.2
20240520061548 58 113 0.0 0.0 0.00 0.28 0.00 1 1015.3
20240520060053 58 113 0.0 0.0 0.00 0.28 0.00 1 1015.4
20240520054542 59 113 0.0 0.0 0.00 0.28 0.00 1 1015.5
20240520053035 59 113 0.0 0.0 0.00 0.28 0.00 1 1015.4
20240520051531 59 113 0.0 0.0 0.00 0.28 0.00 1 1015.4
20240520050033 60 113 0.0 0.0 0.00 0.28 0.00 1 1015.3
20240520044521 60 113 0.0 0.0 0.00 0.28 0.00 1 1015.2
20240520043018 60 113 0.0 0.0 0.00 0.28 0.00 1 1015.2
20240520041513 61 113 0.0 0.0 0.00 0.28 0.00 1 1015.2
20240520040008 61 113 0.0 0.0 0.00 0.28 0.00 1 1015.3
20240520034504 61 113 0.0 0.0 0.00 0.28 0.28 1 1015.2
20240520033101 62 113 0.0 0.0 0.00 0.28 0.28 1 1015.2
20240520031601 63 113 0.0 0.0 0.00 0.28 0.28 1 1015.2
20240520030051 63 113 0.0 0.0 0.00 0.28 0.28 1 1015.2
20240520024547 64 113 0.0 0.0 0.00 0.28 0.28 1 1015.1
20240520023042 64 113 0.0 0.0 0.00 0.28 0.28 1 1015.0
20240520021539 65 113 0.0 0.0 0.00 0.28 0.28 1 1015.0
20240520020036 66 113 0.0 0.0 0.00 0.28 0.28 1 1015.0
20240520014530 67 113 0.0 0.0 0.00 0.28 0.28 1 1014.9
20240520013025 67 113 0.0 0.0 0.00 0.28 0.28 1 1014.7
20240520011521 68 113 0.0 0.0 0.00 0.28 0.28 1 1014.4
20240520010020 69 113 0.0 0.0 0.00 0.28 0.28 1 1014.4
20240520004516 70 113 0.0 0.0 0.00 0.28 0.28 9 1014.3
20240520003011 71 113 0.0 0.0 0.00 0.28 0.28 16 1014.2
20240520001510 71 112 0.0 0.0 0.00 0.28 0.28 19 1014.3
20240520000003 72 112 0.0 0.0 0.00 0.28 0.28 24 1014.2
20240519234558 72 111 0.0 0.0 0.00 0.28 0.28 30 1013.9
20240519233053 72 111 0.0 1.0 0.00 0.28 0.28 40 1013.7
20240519231620 72 100 0.0 7.0 0.00 0.28 0.28 43 1013.6
20240519230044 73 100 0.0 0.0 0.00 0.28 0.28 38 1013.3
20240519224540 73 48 0.0 0.0 0.00 0.28 0.28 48 1013.2
20240519223036 74 113 0.0 0.0 0.00 0.28 0.28 45 1013.4
20240519221539 74 123 0.0 2.0 0.00 0.28 0.28 45 1013.3
20240519220028 74 59 0.0 0.0 0.00 0.28 0.28 48 1013.1
20240519214524 74 71 0.0 0.0 0.00 0.28 0.28 45 1013.2
20240519213020 74 78 0.0 0.0 0.00 0.28 0.28 46 1013.2
20240519211515 74 115 0.0 3.0 0.00 0.28 0.28 37 1013.0
20240519210010 74 41 0.0 6.0 0.00 0.28 0.28 41 1013.2
20240519204507 73 13 2.0 8.0 0.00 0.28 0.28 37 1013.1
20240519203001 73 112 0.0 5.0 0.00 0.28 0.28 37 1013.0
20240519201612 73 13 2.0 8.0 0.00 0.28 0.28 34 1013.0
20240519200052 73 40 3.0 7.0 0.00 0.28 0.28 37 1013.1
20240519194548 72 5 3.0 10.0 0.00 0.28 0.28 38 1013.2
20240519193049 72 88 3.0 11.0 0.00 0.28 0.28 38 1013.4
20240519191545 72 5 4.0 13.0 0.00 0.28 0.28 37 1013.4
20240519190033 72 355 5.0 12.0 0.00 0.28 0.28 24 1013.3
20240519184528 71 44 3.0 10.0 0.00 0.28 0.28 2 1013.4
20240519183031 70 54 2.0 12.0 0.00 0.28 0.28 9 1013.6
20240519181519 70 71 3.0 14.0 0.00 0.28 0.28 1 1013.6
20240519180015 70 28 4.0 11.0 0.00 0.28 0.28 1 1013.8
20240519174508 69 13 0.0 9.0 0.00 0.28 0.28 1 1014.0
20240519173026 69 59 4.0 11.0 0.00 0.28 0.28 1 1014.2
20240519171505 69 29 4.0 9.0 0.00 0.28 0.28 1 1014.2
20240519170000 68 5 2.0 10.0 0.00 0.28 0.28 1 1014.4
20240519164558 68 46 3.0 9.0 0.00 0.28 0.28 1 1014.5
20240519163052 67 58 3.0 11.0 0.00 0.28 0.28 1 1014.5
20240519161549 66 9 2.0 10.0 0.00 0.28 0.28 1 1014.6
20240519160041 65 69 0.0 10.0 0.02 0.28 0.28 1 1014.5
20240519154548 65 9 3.0 10.0 0.03 0.28 0.28 1 1014.5
20240519153041 65 94 0.0 2.0 0.03 0.28 0.28 1 1014.5
20240519151534 65 25 1.0 10.0 0.03 0.28 0.28 1 1014.4
20240519150029 65 56 0.0 6.0 0.01 0.27 0.26 1 1014.2
20240519144522 65 36 2.0 6.0 0.00 0.26 0.25 1 1014.1
20240519143014 65 331 3.0 8.0 0.00 0.26 0.25 1 1013.9
20240519141510 65 41 2.0 8.0 0.00 0.26 0.25 1 1013.8
20240519140004 65 22 4.0 9.0 0.00 0.26 0.25 1 1013.7
20240519134608 65 67 1.0 7.0 0.00 0.26 0.25 1 1013.6
20240519133106 65 44 1.0 6.0 0.00 0.26 0.25 1 1013.7
20240519131552 65 355 3.0 8.0 0.00 0.26 0.25 1 1013.5
20240519130053 65 55 3.0 6.0 0.00 0.26 0.25 1 1013.2
20240519124542 64 62 0.0 12.0 0.00 0.27 0.25 1 1013.0
20240519123037 64 42 0.0 7.0 0.00 0.27 0.25 1 1012.9
20240519121538 64 360 1.0 10.0 0.00 0.27 0.25 1 1012.7
20240519120028 64 33 2.0 6.0 0.00 0.27 0.25 1 1012.4
20240519114524 64 59 2.0 10.0 0.00 0.27 0.25 1 1012.4
20240519113020 64 23 1.0 5.0 0.00 0.27 0.25 1 1012.2
20240519111515 64 30 0.0 4.0 0.00 0.27 0.25 1 1012.3
20240519110010 64 22 0.0 3.0 0.00 0.27 0.25 1 1012.1
20240519104511 64 17 1.0 9.0 0.00 0.27 0.25 1 1011.9
20240519103002 65 11 3.0 6.0 0.01 0.27 0.25 1 1011.6
20240519101610 65 5 0.0 5.0 0.02 0.27 0.25 1 1011.4
20240519100058 65 39 0.0 6.0 0.07 0.27 0.25 1 1011.1
20240519094547 65 57 1.0 4.0 0.24 0.27 0.25 1 1011.0
20240519093043 65 100 0.0 0.0 0.23 0.26 0.24 1 1011.0
20240519091539 65 100 0.0 0.0 0.21 0.23 0.21 1 1011.0
20240519090035 66 53 2.0 7.0 0.17 0.19 0.17 1 1010.8
20240519084542 66 59 0.0 4.0 0.01 0.03 0.01 1 1011.0
20240519083026 67 65 1.0 6.0 0.01 0.03 0.01 1 1010.8
20240519081521 67 20 1.0 6.0 0.00 0.02 0.00 1 1010.6
20240519080020 68 355 2.0 9.0 0.00 0.02 0.00 1 1010.6
20240519074517 67 223 0.0 0.0 0.00 0.02 0.00 1 1010.2
20240519073017 67 223 0.0 0.0 0.00 0.02 0.00 1 1010.2
20240519071512 68 223 0.0 0.0 0.00 0.02 0.00 1 1010.3